User: anonymous   Login
Location: Gipe Farm
(40.9466°N, 95.5370°W)
Time: 04:24:46
(UTC-05:00)
Language:

Cosmos 1842 - Orbit

View from above orbital plane
View from above orbital plane
View from above satellite
View from above satellite

Ground track
Ground track

The orbit data is extracted from the following two-line orbital elements,

1 17911U 87038A   15240.13379960  .00002165  00000-0  13288-3 0  9994
2 17911 082.5268 117.3660 0010368 009.5080 350.6343 15.09589182542313
Epoch (UTC): 28 August 2015 03:12:40
Eccentricity: 0.0010368
inclination: 82.5268°
perigee height: 530 km
apogee height: 544 km
right ascension of ascending node: 117.3660°
argument of perigee: 9.5080°
revolutions per day: 15.09589182
mean anomaly at epoch: 350.6343°
orbit number at epoch: 54231

The dashed part of the orbit path shows where the satellite is in the earth's shadow,  

DLR